Wetterdaten: Januar 2011
Datum Temp Feuchte Luftdruck Regen Wind Richtung Sonnenschein UV Solar Windben
01.01.2011 0,4 C 99 % 1018,3 hPa 0,0 l/m 8,1 km/h NW 0,00 h 0,0 UV-I 22 W/m 20,1 km/h
02.01.2011 -0,8 C 99 % 1021,0 hPa 0,0 l/m 5,2 km/h W-NW 0,08 h 0,0 UV-I 32 W/m 18,9 km/h
03.01.2011 -1,3 C 99 % 1022,0 hPa 0,0 l/m 2,1 km/h W 0,00 h 0,0 UV-I 20 W/m 5,2 km/h
04.01.2011 -3,5 C 97 % 1017,2 hPa 0,0 l/m 0,3 km/h S 2,65 h 0,0 UV-I 113 W/m 1,2 km/h
05.01.2011 -5,6 C 94 % 1009,2 hPa 0,0 l/m 12,5 km/h S-SO 3,33 h 0,0 UV-I 97 W/m 20,5 km/h
06.01.2011 2,4 C 99 % 997,4 hPa 7,8 l/m 8,1 km/h S 0,00 h 0,5 UV-I 32 W/m 15,7 km/h
07.01.2011 3,4 C 99 % 1006,9 hPa 6,2 l/m 5,2 km/h S 0,00 h 0,0 UV-I 32 W/m 8,5 km/h
08.01.2011 6,4 C 90 % 1004,9 hPa 4,4 l/m 7,0 km/h S 2,33 h 0,6 UV-I 114 W/m 12,0 km/h
09.01.2011 2,6 C 93 % 1013,0 hPa 12,4 l/m 7,3 km/h S-SW 0,00 h 0,6 UV-I 60 W/m 19,3 km/h
10.01.2011 -1,0 C 92 % 1020,2 hPa 0,0 l/m 10,9 km/h S 3,50 h 0,6 UV-I 113 W/m 16,1 km/h
11.01.2011 1,9 C 94 % 1008,0 hPa 0,2 l/m 13,6 km/h S-SO 0,33 h 0,5 UV-I 63 W/m 19,7 km/h
12.01.2011 3,3 C 97 % 1012,5 hPa 15,8 l/m 7,6 km/h S 0,00 h 0,5 UV-I 43 W/m 15,3 km/h
13.01.2011 8,7 C 100 % 1009,7 hPa 25,2 l/m 10,3 km/h W 0,00 h 0,0 UV-I 19 W/m 25,0 km/h
14.01.2011 9,4 C 93 % 1010,5 hPa 11,4 l/m 12,4 km/h S-SW 0,00 h 0,0 UV-I 16 W/m 29,3 km/h
15.01.2011 7,1 C 88 % 1020,7 hPa 1,6 l/m 12,7 km/h S-SW 0,00 h 0,5 UV-I 41 W/m 22,5 km/h
16.01.2011 6,8 C 91 % 1023,5 hPa 0,0 l/m 10,4 km/h S 0,67 h 0,6 UV-I 82 W/m 18,1 km/h
17.01.2011 4,1 C 93 % 1021,8 hPa 0,2 l/m 6,6 km/h S 4,17 h 0,7 UV-I 128 W/m 10,5 km/h
18.01.2011 4,5 C 96 % 1022,8 hPa 5,2 l/m 5,5 km/h N-NW 0,08 h 0,5 UV-I 48 W/m 12,9 km/h
19.01.2011 1,2 C 97 % 1026,9 hPa 2,0 l/m 6,1 km/h NW 0,00 h 0,5 UV-I 40 W/m 14,1 km/h
20.01.2011 -0,8 C 92 % 1030,3 hPa 0,4 l/m 5,5 km/h N-NW 0,00 h 0,0 UV-I 37 W/m 11,3 km/h
21.01.2011 -2,0 C 94 % 1034,0 hPa 0,0 l/m 1,8 km/h NW 0,00 h 0,5 UV-I 52 W/m 5,2 km/h
22.01.2011 -0,2 C 98 % 1029,9 hPa 0,8 l/m 1,9 km/h S 0,00 h 0,5 UV-I 39 W/m 3,6 km/h
23.01.2011 0,7 C 99 % 1025,2 hPa 1,2 l/m 1,8 km/h N-NW 0,00 h 0,0 UV-I 36 W/m 5,6 km/h
24.01.2011 1,4 C 99 % 1021,7 hPa 1,0 l/m 5,2 km/h NW 0,00 h 0,0 UV-I 27 W/m 14,5 km/h
25.01.2011 1,2 C 97 % 1007,4 hPa 11,8 l/m 12,7 km/h W-SW 0,08 h 0,6 UV-I 48 W/m 27,3 km/h
26.01.2011 0,3 C 94 % 1011,3 hPa 0,0 l/m 1,7 km/h N-NO 1,33 h 0,6 UV-I 85 W/m 6,0 km/h
27.01.2011 -2,2 C 80 % 1021,9 hPa 0,2 l/m 6,5 km/h O 2,67 h 0,8 UV-I 131 W/m 17,3 km/h
28.01.2011 -2,9 C 88 % 1024,4 hPa 0,0 l/m 7,4 km/h O 2,83 h 0,7 UV-I 115 W/m 18,1 km/h
29.01.2011 -3,3 C 83 % 1020,3 hPa 0,0 l/m 0,8 km/h N-NO 5,33 h 0,8 UV-I 166 W/m 4,8 km/h
30.01.2011 -3,8 C 90 % 1022,1 hPa 0,0 l/m 3,5 km/h N-NO 5,17 h 0,8 UV-I 168 W/m 8,0 km/h
31.01.2011 -6,2 C 94 % 1025,6 hPa 0,0 l/m 0,8 km/h SO 0,42 h 0,6 UV-I 76 W/m 4,4 km/h
Min-Datum 05.01.11 29.01.11 06.01.11 18 Tage 01.01.11 - - - - 01.01.11
Min-Zeit 06:35 14:40 19:55 - 00:00 - - - - 00:00
Minimum -8,0 C 56 % 996,0 hPa - 0,0 km/h - - - - 0,0 km/h
Max-Datum 16.01.11 01.01.11 21.01.11 13.01.11 11.01.11 - 29.01.11 27.01.11 25.01.11 11.01.11
Max-Zeit 12:35 14:40 11:20 15:55 10:35 - 15:40 12:10 12:15 11:10
Maximum 10,6 C 100 % 1035,0 hPa 25,2 l/m 31,3 km/h
S-SO
- 5,25 h 1,0 UV-I 506 W/m 51,5 km/h
S-SO
Durchschnitt 1,0 C 94 % 1018,1 hPa #107,8 l/m 6,5 km/h S #34:59 h 0,6 UV-I 68 W/m 13,9 km/h

Durchschnitt Minimum Temp.-1,0 C
Durchschnitt Maximum Temp.3,1 C